Location: Kershaw
(34.5481°N, 80.5823°W)
Time: 16:29:44
(UTC+00:00)

Courier 1B Rocket - Pass Details

Date: 27 September 2022
Orbit: 920 x 1202 km, 28.2° (Epoch: 08 December)

Event Time Altitude Azimuth Distance (km) Brightness Sun altitude
Rises 07:45:29 0° 266° (W) 3,593 - -41.7°
Reaches altitude 10° 07:48:35 10° 252° (WSW) 2,679 - -41.2°
Maximum altitude 07:53:33 23° 202° (SSW) 1,940 - -40.3°
Drops below altitude 10° 07:58:45 10° 152° (SSE) 2,814 - -39.4°
Exits shadow 08:00:57 - 142° (SE) 3,456 7.9 -39.0°
Sets 08:02:06 0° 138° (SE) 3,818 8.2 -38.8°
